Location: Malvern Link
(52.1333°N, 2.3000°W)
Time: 09:10:29
(UTC+00:00)

BEESAT - Visible Passes

Search period start: 27 June 2022 00:00
Search period end: 07 July 2022 00:00
Orbit: 698 x 708 km, 98.6° (Epoch: 26 June)

Date Brightness Start Highest point End Pass type
(mag) Time Alt. Az. Time Alt. Az. Time Alt. Az.
27 Jun ? 22:17:15 10° N 22:20:47 21° WNW 22:24:18 10° WSW visible
28 Jun ? 21:21:47 10° N 21:26:26 52° WNW 21:31:03 10° SW visible
28 Jun ? 23:02:01 10° NW 23:03:08 11° NW 23:04:16 10° WNW visible
29 Jun ? 22:05:13 10° N 22:09:06 25° WNW 22:12:59 10° WSW visible
30 Jun ? 22:49:22 10° NNW 22:51:32 13° NW 22:53:42 10° WNW visible
01 Jul ? 21:53:14 10° N 21:57:24 31° WNW 22:01:33 10° WSW visible
02 Jul ? 22:37:04 10° NNW 22:39:53 16° NW 22:42:43 10° W visible
03 Jul ? 21:41:17 10° N 21:45:41 37° WNW 21:50:04 10° SW visible
04 Jul ? 22:24:55 10° N 22:28:15 19° NW 22:31:34 10° W visible
05 Jul ? 21:29:22 10° N 21:33:56 46° WNW 21:38:30 10° SW visible
06 Jul ? 22:12:51 10° N 22:16:35 23° WNW 22:20:17 10° WSW visible
